SCP
0 0 0 0 0 0 0 0 0 0 0 0 0 0 0 0 0 0 0 0 0 0 0 0 0 0 0 0 0 0 0 0 0 0 0 0 0 0 0 0 0 1 0
0 0 0 0 0 0 0 0 0 0 0 0 0 0 0 0 0 0 0 0 0 0 0 0 0 0 0 0 0 0 0 0 0 0 0 0 0 0 0 0 0 0 0
0 0 0 0 0 0 0 -0 0 0 0 0 0 0 0 0 0 0 0 0 0 0 0 0 0 0 0 0 0 0 0 0 0 0 0 0 0 0 0 0 0 0 0
0 0 0 0 0 0 0 0 0 0 0 0 0 0 0 0 0 0 0 0 0 0 0 0 0 0 0 -0 0 0 0 0 0 0 0 0 0 0 0 0 0 0 0
0 0 0 0 0 0 0 0 0 0 0 0 0 0 -0 -0 0 0 0 0 0 0 0 0 0 0 0 0 0 0 0 0 0 0 0 0 0 0 0 0 0 0 0
0 0 0 0 0 0 0 0 0 0 0 0 0 0 0 0 0 0 0 0 0 0 0 0 0 0 0 0 0 0 -0 -0 0 0 0 0 0 0 0 0 0 0 0
0 0 0 0 0 0 0 0 0 0 0 0 0 0 0 0 0 0 0 0 0 0 0 0 0 0 0 0 0 0 0 -0 -0 0 0 0 0 0 0 0 0 0 0
0 0 0 0 0 0 0 0 0 0 0 0 0 0 0 0 0 -0 0 0 0 0 0 0 0 0 0 0 0 0 0 0 0 0 0 0 0 0 0 0 0 0 0
0 0 0 0 0 0 0 0 0 0 0 0 0 0 0 0 -0 0 0 0 0 0 0 0 0 0 0 0 0 0 0 0 0 0 0 0 0 0 0 0 0 0 0
0 0 0 0 0 0 0 0 0 0 0 0 0 0 0 0 0 0 0 0 0 0 0 0 0 0 0 0 0 0 0 0 0 0 0 0 0 0 0 0 0 0 0
0 0 0 0 0 0 0 0 0 0 0 0 0 0 0 0 0 0 0 0 0 0 0 0 0 0 0 0 0 0 0 0 0 0 0 0 0 0 0 0 0 0 0
0 0 0 0 0 0 0 0 0 0 0 0 0 0 0 0 0 0 0 0 0 0 0 0 0 0 0 0 0 0 0 0 0 0 0 0 0 0 0 0 0 0 0
0 0 0 0 0 0 0 0 0 0 0 0 0 0 0 0 0 0 0 0 0 0 0 0 0 0 0 0 0 0 0 0 0 0 0 0 0 0 0 0 0 0 0
0 0 0 0 0 0 0 0 0 0 0 0 0 0 0 0 0 0 0 0 0 0 0 0 0 0 0 0 0 0 0 0 0 0 0 0 0 0 0 0 0 0 0
0 0 0 0 0 0 0 0 0 0 0 0 0 0 0 0 0 0 0 0 0 0 0 0 0 0 0 0 0 0 0 0 0 0 0 0 0 0 0 0 0 0 0
0 0 0 0 0 0 0 0 0 0 0 0 0 0 0 0 0 0 0 0 0 0 0 0 0 0 0 0 0 0 0 0 0 0 0 0 0 0 0 0 0 0 0
0 0 0 0 0 0 0 0 0 0 0 0 0 0 0 0 0 0 0 0 0 0 0 0 0 0 0 0 0 0 0 0 0 0 0 0 0 0 0 0 0 0 0
0 0 0 0 0 0 0 0 0 0 0 0 0 0 0 0 0 0 0 0 0 0 0 0 0 0 0 0 0 0 0 0 0 0 0 0 0 0 0 0 0 0 0
0 0 0 0 0 0 0 0 0 0 0 0 0 0 0 0 0 0 0 0 0 0 0 0 0 0 0 0 0 0 0 0 0 0 0 0 0 0 0 0 0 0 0
0 0 0 0 0 0 0 0 0 0 0 0 0 0 0 0 0 0 0 0 0 0 0 0 0 0 0 0 0 0 0 0 0 0 0 0 0 0 0 0 0 0 0
0 0 0 0 0 0 0 0 0 0 0 0 0 0 0 0 0 0 0 0 0 0 0 0 0 0 0 0 0 0 0 0 0 0 0 0 0 0 0 0 0 0 0
0 0 0 0 0 0 0 0 0 0 0 0 0 0 0 0 0 0 0 0 0 0 0 0 0 0 0 0 0 0 0 0 0 0 0 0 0 0 0 0 0 -0 -0
0 0 0 0 0 0 0 0 0 0 0 0 0 0 0 0 0 0 0 0 0 0 0 0 0 0 0 0 0 0 0 0 0 0 0 0 0 0 0 0 -0 -0 -0
0 0 0 0 0 0 0 0 0 0 0 0 0 0 0 0 0 0 0 0 0 0 0 0 0 0 0 0 0 0 0 0 0 0 0 -0 0 0 0 0 -0 -0 0
0 0 0 0 0 0 0 0 0 0 0 0 0 0 0 0 0 0 0 0 0 0 0 0 0 0 0 0 0 0 0 0 0 0 0 0 -0 -0 -0 0 -0 -0 0
0 0 0 0 0 0 0 0 0 0 0 0 0 0 0 0 0 0 0 0 0 0 0 0 0 0 0 0 0 0 0 0 0 0 0 -0 0 -0 -0 -0 -0 0 0
Wind_Speed_500mb
4 5 14 23 20 6 10 17 16 6 5 11 14 18 13 9 2 5 3 4 7 6 8 9 17 24 23 27 27 25 25 29 30 30 31 35 39 43 45 47 48 47 47
8 7 15 22 16 12 17 28 23 6 6 3 6 8 10 10 4 4 4 11 15 12 7 14 22 30 33 31 29 23 21 24 27 30 30 31 33 36 40 42 45 44 44
13 13 19 21 24 20 24 31 10 2 5 4 3 1 6 9 5 3 7 11 8 13 17 24 24 26 35 25 30 21 23 25 26 28 30 31 32 33 35 38 41 39 46
16 16 19 18 26 21 26 34 12 7 13 21 6 2 4 7 5 7 6 10 17 23 28 26 22 32 30 27 23 24 33 30 29 28 29 31 33 34 35 35 35 38 43
21 14 21 12 21 26 28 30 12 11 11 15 18 7 8 3 3 3 11 20 24 23 17 21 25 27 28 26 30 31 35 39 33 28 28 30 30 30 32 30 35 39 37
25 17 23 12 17 25 19 25 20 8 14 16 16 7 12 6 5 5 16 12 10 11 19 24 25 27 25 25 27 29 27 30 37 33 31 33 33 32 31 32 37 38 36
23 22 15 11 15 16 16 18 21 17 7 21 18 17 12 7 11 6 17 14 13 18 21 31 33 34 35 30 32 32 32 32 33 34 41 39 36 32 33 34 34 36 35
21 17 10 15 14 10 14 13 20 25 14 19 24 16 15 2 18 26 20 22 18 25 31 29 25 32 40 44 43 39 35 36 38 39 42 42 42 37 29 35 39 40 39
8 15 11 13 15 15 8 13 16 20 19 7 13 12 9 10 43 30 40 30 38 35 33 38 41 45 40 38 41 42 36 42 42 43 47 45 43 46 44 43 40 45 45
8 7 11 15 19 18 11 11 12 15 18 18 16 16 21 27 35 41 47 49 42 43 41 39 40 40 39 38 42 39 42 42 48 51 54 55 55 48 48 45 45 45 48
14 11 11 17 20 16 10 10 13 16 22 26 29 34 36 35 37 41 55 57 54 46 41 40 38 35 31 36 35 41 52 49 49 55 55 60 59 60 57 53 49 48 52
14 17 14 14 19 14 11 13 17 21 26 32 33 36 38 39 41 41 47 49 48 48 46 39 36 32 31 34 37 40 42 53 56 52 53 57 61 69 65 63 56 48 51
13 10 9 12 20 15 13 18 24 29 33 34 33 32 26 25 27 25 31 39 46 54 56 53 49 48 51 53 51 44 52 52 54 58 58 54 60 62 66 66 66 59 53
13 10 12 20 22 14 20 25 32 32 31 27 21 20 22 21 23 22 28 33 43 51 61 65 65 61 62 57 56 59 64 59 57 59 62 68 62 58 59 65 69 70 64
17 17 16 13 12 22 25 31 33 28 23 24 28 23 24 25 22 25 28 31 37 38 59 62 68 65 62 60 56 54 55 59 64 68 69 61 60 62 62 64 62 72 72
13 16 15 12 22 28 29 28 29 25 26 27 27 20 21 27 34 36 33 35 40 41 44 64 61 57 54 50 50 50 54 59 63 65 68 71 70 65 64 65 66 70 77
17 20 14 19 25 27 28 30 31 25 34 36 32 31 33 36 34 32 32 35 36 46 56 63 60 58 60 59 56 53 52 53 53 52 54 56 56 58 62 62 61 64 69
27 18 22 27 31 32 33 32 27 39 35 30 31 30 31 31 33 31 35 31 45 52 57 59 62 62 62 69 63 62 54 51 52 51 50 50 53 55 56 53 54 58 59
12 24 27 32 33 32 28 29 36 26 25 25 24 26 28 32 33 29 33 37 47 57 60 59 62 63 67 70 65 76 64 68 63 57 53 49 45 44 47 51 52 52 57
27 30 32 32 35 35 30 33 21 21 22 23 24 26 27 33 33 32 40 43 50 60 66 59 59 62 71 69 66 74 74 73 76 66 57 44 38 39 41 43 41 49 57
28 32 31 32 33 31 33 25 23 23 27 29 24 25 28 32 35 34 37 42 51 65 59 52 52 63 68 68 65 72 77 83 79 71 66 56 45 45 44 41 45 50 49
27 24 31 36 30 28 28 27 22 23 28 35 35 29 33 38 32 35 33 39 52 55 47 44 57 58 64 70 72 71 81 87 87 72 59 63 44 51 36 32 40 46 41
22 26 30 32 31 29 26 22 22 26 31 38 41 38 37 31 29 31 33 41 46 44 40 44 55 58 69 75 75 71 79 87 85 66 59 65 50 48 40 34 41 44 43
30 33 28 25 24 20 26 24 25 31 34 39 42 46 40 33 32 31 37 45 44 44 43 47 54 61 67 76 65 61 72 82 69 58 46 56 42 44 38 38 44 37 37
33 31 24 19 26 28 29 30 34 39 40 42 43 47 43 38 32 32 41 48 45 45 46 50 56 63 67 72 60 60 64 70 67 60 44 31 39 52 47 39 33 27 37
31 28 23 23 24 28 25 33 42 42 43 48 48 49 38 37 31 31 36 43 45 48 55 57 60 64 66 66 53 57 55 60 54 55 32 34 42 50 33 32 27 32 52
Wind_Direction_500mb
143 62 36 21 22 25 3 6 339 10 7 27 50 46 62 197 96 65 47 346 296 297 325 306 342 333 330 328 319 305 293 286 282 275 266 262 257 254 252 250 250 251 254
77 13 27 12 9 349 0 354 344 335 345 68 83 66 75 99 120 44 334 296 276 278 303 315 323 314 317 325 335 322 310 299 287 280 275 271 265 258 253 252 250 248 251
30 17 14 8 359 357 1 356 5 178 34 170 140 6 87 93 153 246 321 298 267 283 307 302 302 309 323 329 324 315 318 317 306 281 276 273 271 267 258 253 251 249 245
2 0 355 0 354 359 0 12 39 109 57 57 55 151 98 163 214 267 277 285 291 294 298 303 303 313 323 328 323 308 312 303 304 300 280 275 273 271 266 258 260 252 250
336 339 339 347 347 346 355 11 28 35 31 48 46 194 211 211 0 305 303 298 295 308 306 316 313 315 324 321 322 315 292 296 295 296 301 283 280 277 271 263 253 260 256
334 314 323 307 323 327 356 17 30 26 5 6 15 58 221 222 171 324 317 285 312 312 310 306 314 325 324 320 321 327 321 302 292 285 288 288 288 280 270 258 254 258 259
327 320 309 333 329 329 0 12 31 16 346 2 35 84 74 169 201 62 321 314 287 299 301 295 303 301 311 302 300 311 310 319 317 296 279 274 278 279 271 264 262 259 257
313 339 302 331 351 309 328 4 15 16 20 348 9 19 6 250 233 296 318 323 316 304 297 301 290 294 298 293 294 295 291 303 308 300 292 281 272 275 275 274 271 266 260
331 9 345 9 353 347 322 341 358 10 18 22 351 4 349 304 310 320 319 318 316 315 305 301 293 294 287 291 285 293 277 287 290 288 291 285 278 271 273 270 270 266 264
342 339 358 8 2 349 307 323 347 353 348 349 344 329 318 310 311 313 315 315 317 317 313 306 302 299 294 289 284 285 290 287 286 280 280 284 278 272 268 269 268 264 261
278 282 313 345 346 338 333 332 336 334 331 331 327 324 321 317 312 307 309 315 318 324 326 326 325 318 308 301 295 282 290 293 287 284 281 280 277 273 270 263 266 262 261
262 251 284 340 338 334 338 345 335 332 329 323 320 320 313 311 314 311 309 319 322 327 329 330 333 330 323 318 306 298 293 293 292 290 285 284 277 272 265 262 259 257 257
272 276 291 317 323 332 348 341 334 327 323 315 314 316 317 321 318 319 319 325 322 320 325 323 327 325 321 317 309 298 293 294 289 289 288 285 290 278 267 260 257 253 255
265 286 292 294 320 327 330 330 327 317 315 312 314 317 315 316 313 314 314 315 317 317 316 317 319 318 316 311 301 295 293 292 285 288 285 291 284 277 269 263 257 253 250
262 276 296 311 338 334 312 313 315 303 303 309 311 300 301 308 306 307 311 317 327 328 321 324 320 318 315 311 309 306 300 288 281 282 286 286 285 278 270 267 263 255 250
270 280 279 306 305 302 302 308 303 303 310 310 307 305 304 304 308 311 315 323 326 328 324 321 323 327 325 318 317 310 301 296 286 283 283 284 283 277 272 268 265 261 252
271 277 285 295 292 292 297 303 308 306 308 303 298 299 304 310 315 316 322 329 333 336 332 327 327 331 332 332 323 318 313 311 302 295 290 286 280 277 270 263 264 260 254
283 271 281 290 292 293 302 306 303 310 308 303 296 297 307 317 320 318 325 328 340 339 334 326 327 329 330 334 331 329 320 313 311 309 306 292 285 282 272 265 264 262 256
266 279 281 289 283 296 288 296 306 310 314 315 301 298 310 321 320 318 329 326 328 333 334 326 323 326 329 333 331 337 333 328 323 318 312 307 293 287 272 267 262 262 263
278 284 285 279 287 292 296 305 300 315 328 326 306 297 304 316 319 316 318 318 321 329 328 324 324 326 328 333 335 329 333 328 320 322 321 319 298 294 278 262 259 271 265
278 272 284 282 284 287 302 303 320 334 345 348 331 306 302 306 307 307 309 311 325 327 325 328 330 329 329 333 329 325 322 321 321 317 312 317 320 309 286 265 266 277 273
268 274 289 287 283 294 304 316 324 346 355 351 343 317 304 301 292 307 307 312 328 332 331 330 335 335 335 330 325 318 316 325 321 319 306 305 309 308 307 290 278 270 263
279 299 297 286 281 292 309 322 319 336 349 350 346 335 321 305 298 304 295 301 322 327 331 324 324 331 330 333 324 314 316 318 319 307 301 297 305 305 308 297 302 270 247
303 312 301 287 282 303 320 323 315 319 329 340 340 336 327 308 294 297 294 306 315 318 323 318 319 323 325 328 323 314 317 318 313 310 306 292 302 306 310 297 303 264 246
305 305 298 285 297 299 306 308 310 310 311 324 333 336 325 315 296 296 296 308 309 315 312 314 316 321 317 325 324 323 329 326 318 316 318 299 313 316 311 311 295 251 197
302 295 291 289 294 297 300 305 302 300 306 319 327 328 320 309 299 297 307 308 308 307 310 311 314 316 319 330 333 337 337 325 315 316 315 298 302 312 301 316 287 184 168
Wind_Speed_850mb
4 5 14 23 20 6 10 17 16 6 5 11 14 18 13 9 2 5 3 4 7 6 8 9 17 24 23 27 27 25 25 29 30 30 31 35 39 43 45 47 48 47 47
8 7 15 22 16 12 17 28 23 6 6 3 6 8 10 10 4 4 4 11 15 12 7 14 22 30 33 31 29 23 21 24 27 30 30 31 33 36 40 42 45 44 44
13 13 19 21 24 20 24 31 10 2 5 4 3 1 6 9 5 3 7 11 8 13 17 24 24 26 35 25 30 21 23 25 26 28 30 31 32 33 35 38 41 39 46
16 16 19 18 26 21 26 34 12 7 13 21 6 2 4 7 5 7 6 10 17 23 28 26 22 32 30 27 23 24 33 30 29 28 29 31 33 34 35 35 35 38 43
21 14 21 12 21 26 28 30 12 11 11 15 18 7 8 3 3 3 11 20 24 23 17 21 25 27 28 26 30 31 35 39 33 28 28 30 30 30 32 30 35 39 37
25 17 23 12 17 25 19 25 20 8 14 16 16 7 12 6 5 5 16 12 10 11 19 24 25 27 25 25 27 29 27 30 37 33 31 33 33 32 31 32 37 38 36
23 22 15 11 15 16 16 18 21 17 7 21 18 17 12 7 11 6 17 14 13 18 21 31 33 34 35 30 32 32 32 32 33 34 41 39 36 32 33 34 34 36 35
21 17 10 15 14 10 14 13 20 25 14 19 24 16 15 2 18 26 20 22 18 25 31 29 25 32 40 44 43 39 35 36 38 39 42 42 42 37 29 35 39 40 39
8 15 11 13 15 15 8 13 16 20 19 7 13 12 9 10 43 30 40 30 38 35 33 38 41 45 40 38 41 42 36 42 42 43 47 45 43 46 44 43 40 45 45
8 7 11 15 19 18 11 11 12 15 18 18 16 16 21 27 35 41 47 49 42 43 41 39 40 40 39 38 42 39 42 42 48 51 54 55 55 48 48 45 45 45 48
14 11 11 17 20 16 10 10 13 16 22 26 29 34 36 35 37 41 55 57 54 46 41 40 38 35 31 36 35 41 52 49 49 55 55 60 59 60 57 53 49 48 52
14 17 14 14 19 14 11 13 17 21 26 32 33 36 38 39 41 41 47 49 48 48 46 39 36 32 31 34 37 40 42 53 56 52 53 57 61 69 65 63 56 48 51
13 10 9 12 20 15 13 18 24 29 33 34 33 32 26 25 27 25 31 39 46 54 56 53 49 48 51 53 51 44 52 52 54 58 58 54 60 62 66 66 66 59 53
13 10 12 20 22 14 20 25 32 32 31 27 21 20 22 21 23 22 28 33 43 51 61 65 65 61 62 57 56 59 64 59 57 59 62 68 62 58 59 65 69 70 64
17 17 16 13 12 22 25 31 33 28 23 24 28 23 24 25 22 25 28 31 37 38 59 62 68 65 62 60 56 54 55 59 64 68 69 61 60 62 62 64 62 72 72
13 16 15 12 22 28 29 28 29 25 26 27 27 20 21 27 34 36 33 35 40 41 44 64 61 57 54 50 50 50 54 59 63 65 68 71 70 65 64 65 66 70 77
17 20 14 19 25 27 28 30 31 25 34 36 32 31 33 36 34 32 32 35 36 46 56 63 60 58 60 59 56 53 52 53 53 52 54 56 56 58 62 62 61 64 69
27 18 22 27 31 32 33 32 27 39 35 30 31 30 31 31 33 31 35 31 45 52 57 59 62 62 62 69 63 62 54 51 52 51 50 50 53 55 56 53 54 58 59
12 24 27 32 33 32 28 29 36 26 25 25 24 26 28 32 33 29 33 37 47 57 60 59 62 63 67 70 65 76 64 68 63 57 53 49 45 44 47 51 52 52 57
27 30 32 32 35 35 30 33 21 21 22 23 24 26 27 33 33 32 40 43 50 60 66 59 59 62 71 69 66 74 74 73 76 66 57 44 38 39 41 43 41 49 57
28 32 31 32 33 31 33 25 23 23 27 29 24 25 28 32 35 34 37 42 51 65 59 52 52 63 68 68 65 72 77 83 79 71 66 56 45 45 44 41 45 50 49
27 24 31 36 30 28 28 27 22 23 28 35 35 29 33 38 32 35 33 39 52 55 47 44 57 58 64 70 72 71 81 87 87 72 59 63 44 51 36 32 40 46 41
22 26 30 32 31 29 26 22 22 26 31 38 41 38 37 31 29 31 33 41 46 44 40 44 55 58 69 75 75 71 79 87 85 66 59 65 50 48 40 34 41 44 43
30 33 28 25 24 20 26 24 25 31 34 39 42 46 40 33 32 31 37 45 44 44 43 47 54 61 67 76 65 61 72 82 69 58 46 56 42 44 38 38 44 37 37
33 31 24 19 26 28 29 30 34 39 40 42 43 47 43 38 32 32 41 48 45 45 46 50 56 63 67 72 60 60 64 70 67 60 44 31 39 52 47 39 33 27 37
31 28 23 23 24 28 25 33 42 42 43 48 48 49 38 37 31 31 36 43 45 48 55 57 60 64 66 66 53 57 55 60 54 55 32 34 42 50 33 32 27 32 52
Wind_Direction_850mb
143 62 36 21 22 25 3 6 339 10 7 27 50 46 62 197 96 65 47 346 296 297 325 306 342 333 330 328 319 305 293 286 282 275 266 262 257 254 252 250 250 251 254
77 13 27 12 9 349 0 354 344 335 345 68 83 66 75 99 120 44 334 296 276 278 303 315 323 314 317 325 335 322 310 299 287 280 275 271 265 258 253 252 250 248 251
30 17 14 8 359 357 1 356 5 178 34 170 140 6 87 93 153 246 321 298 267 283 307 302 302 309 323 329 324 315 318 317 306 281 276 273 271 267 258 253 251 249 245
2 0 355 0 354 359 0 12 39 109 57 57 55 151 98 163 214 267 277 285 291 294 298 303 303 313 323 328 323 308 312 303 304 300 280 275 273 271 266 258 260 252 250
336 339 339 347 347 346 355 11 28 35 31 48 46 194 211 211 0 305 303 298 295 308 306 316 313 315 324 321 322 315 292 296 295 296 301 283 280 277 271 263 253 260 256
334 314 323 307 323 327 356 17 30 26 5 6 15 58 221 222 171 324 317 285 312 312 310 306 314 325 324 320 321 327 321 302 292 285 288 288 288 280 270 258 254 258 259
327 320 309 333 329 329 0 12 31 16 346 2 35 84 74 169 201 62 321 314 287 299 301 295 303 301 311 302 300 311 310 319 317 296 279 274 278 279 271 264 262 259 257
313 339 302 331 351 309 328 4 15 16 20 348 9 19 6 250 233 296 318 323 316 304 297 301 290 294 298 293 294 295 291 303 308 300 292 281 272 275 275 274 271 266 260
331 9 345 9 353 347 322 341 358 10 18 22 351 4 349 304 310 320 319 318 316 315 305 301 293 294 287 291 285 293 277 287 290 288 291 285 278 271 273 270 270 266 264
342 339 358 8 2 349 307 323 347 353 348 349 344 329 318 310 311 313 315 315 317 317 313 306 302 299 294 289 284 285 290 287 286 280 280 284 278 272 268 269 268 264 261
278 282 313 345 346 338 333 332 336 334 331 331 327 324 321 317 312 307 309 315 318 324 326 326 325 318 308 301 295 282 290 293 287 284 281 280 277 273 270 263 266 262 261
262 251 284 340 338 334 338 345 335 332 329 323 320 320 313 311 314 311 309 319 322 327 329 330 333 330 323 318 306 298 293 293 292 290 285 284 277 272 265 262 259 257 257
272 276 291 317 323 332 348 341 334 327 323 315 314 316 317 321 318 319 319 325 322 320 325 323 327 325 321 317 309 298 293 294 289 289 288 285 290 278 267 260 257 253 255
265 286 292 294 320 327 330 330 327 317 315 312 314 317 315 316 313 314 314 315 317 317 316 317 319 318 316 311 301 295 293 292 285 288 285 291 284 277 269 263 257 253 250
262 276 296 311 338 334 312 313 315 303 303 309 311 300 301 308 306 307 311 317 327 328 321 324 320 318 315 311 309 306 300 288 281 282 286 286 285 278 270 267 263 255 250
270 280 279 306 305 302 302 308 303 303 310 310 307 305 304 304 308 311 315 323 326 328 324 321 323 327 325 318 317 310 301 296 286 283 283 284 283 277 272 268 265 261 252
271 277 285 295 292 292 297 303 308 306 308 303 298 299 304 310 315 316 322 329 333 336 332 327 327 331 332 332 323 318 313 311 302 295 290 286 280 277 270 263 264 260 254
283 271 281 290 292 293 302 306 303 310 308 303 296 297 307 317 320 318 325 328 340 339 334 326 327 329 330 334 331 329 320 313 311 309 306 292 285 282 272 265 264 262 256
266 279 281 289 283 296 288 296 306 310 314 315 301 298 310 321 320 318 329 326 328 333 334 326 323 326 329 333 331 337 333 328 323 318 312 307 293 287 272 267 262 262 263
278 284 285 279 287 292 296 305 300 315 328 326 306 297 304 316 319 316 318 318 321 329 328 324 324 326 328 333 335 329 333 328 320 322 321 319 298 294 278 262 259 271 265
278 272 284 282 284 287 302 303 320 334 345 348 331 306 302 306 307 307 309 311 325 327 325 328 330 329 329 333 329 325 322 321 321 317 312 317 320 309 286 265 266 277 273
268 274 289 287 283 294 304 316 324 346 355 351 343 317 304 301 292 307 307 312 328 332 331 330 335 335 335 330 325 318 316 325 321 319 306 305 309 308 307 290 278 270 263
279 299 297 286 281 292 309 322 319 336 349 350 346 335 321 305 298 304 295 301 322 327 331 324 324 331 330 333 324 314 316 318 319 307 301 297 305 305 308 297 302 270 247
303 312 301 287 282 303 320 323 315 319 329 340 340 336 327 308 294 297 294 306 315 318 323 318 319 323 325 328 323 314 317 318 313 310 306 292 302 306 310 297 303 264 246
305 305 298 285 297 299 306 308 310 310 311 324 333 336 325 315 296 296 296 308 309 315 312 314 316 321 317 325 324 323 329 326 318 316 318 299 313 316 311 311 295 251 197
302 295 291 289 294 297 300 305 302 300 306 319 327 328 320 309 299 297 307 308 308 307 310 311 314 316 319 330 333 337 337 325 315 316 315 298 302 312 301 316 287 184 168